GFSGL_prec_cloud_273.txt.gz
Cloud_Cover
0 0 0 0 0 0 0 0 0 0 0 0 0 0 0 0 0 0 0 0 0 0 0 0 0 0 5 12 14 52 89 100 100 100 100 100 100 100 100 100 100 100 100
0 0 0 0 0 0 0 0 0 0 0 0 0 0 0 0 0 0 0 0 0 0 0 0 0 0 0 0 0 8 100 100 100 100 100 100 100 100 100 100 100 100 100
5 3 4 0 0 0 0 0 0 0 0 0 0 0 0 0 0 0 0 0 0 0 0 0 0 0 0 3 0 0 3 75 100 100 100 100 100 100 100 100 100 100 100
93 87 36 0 0 0 0 0 0 0 0 0 0 0 0 0 0 0 0 0 0 0 0 0 0 0 0 0 0 0 0 4 84 100 100 100 100 100 100 100 100 100 100
1 70 100 90 11 0 0 0 0 0 0 0 0 0 0 0 0 0 0 0 0 0 0 0 0 0 0 0 0 0 0 3 24 100 100 100 100 100 100 100 100 100 100
1 1 0 100 74 0 0 0 0 0 0 0 0 0 0 0 0 0 0 0 0 0 0 0 0 0 0 0 0 7 12 0 0 93 100 100 100 100 100 100 100 100 100
20 8 2 26 24 6 0 0 0 0 0 0 0 0 0 0 0 3 7 37 78 0 0 0 0 0 0 0 0 0 0 7 98 100 80 100 100 100 100 100 100 100 100
100 100 61 6 4 15 0 0 0 0 0 0 0 0 0 0 34 72 52 30 71 0 0 0 41 75 100 99 72 3 0 23 99 98 100 100 100 100 100 100 100 100 100
24 100 78 68 0 0 0 0 0 0 0 0 0 0 0 0 1 8 62 100 100 50 5 46 75 100 100 100 100 100 99 2 4 98 100 100 100 100 100 100 100 100 100
66 37 0 0 0 0 0 0 0 0 0 0 1 7 100 100 100 92 100 100 100 100 98 7 96 72 100 100 64 100 100 68 0 24 100 100 100 100 98 100 100 100 100
9 0 3 5 2 4 0 0 0 0 0 21 77 98 100 100 88 100 100 100 100 100 100 43 7 21 89 97 100 97 70 11 1 17 100 100 100 100 100 100 100 100 100
3 5 5 5 4 0 0 0 15 10 79 100 100 100 100 100 100 100 100 100 100 100 100 100 100 99 56 68 76 36 5 5 0 0 100 100 100 100 100 100 100 100 100
31 6 5 5 5 5 8 57 25 24 100 100 100 100 100 100 100 100 100 100 100 100 100 100 100 95 57 6 5 5 6 5 5 0 8 100 100 100 100 100 99 91 100
100 15 32 5 5 4 5 6 94 100 100 100 100 100 100 100 100 100 100 100 100 100 100 100 100 100 100 100 68 6 5 100 100 35 7 3 88 100 97 100 100 100 100
100 75 5 6 40 85 100 100 100 100 100 100 100 100 100 100 100 100 100 100 100 100 100 100 100 100 100 100 100 99 5 96 100 100 100 39 0 52 83 100 100 100 100
84 5 50 99 88 44 46 64 90 100 100 100 100 100 100 100 100 100 100 100 100 100 100 100 100 100 100 100 100 100 100 18 100 100 100 100 39 2 9 81 100 100 100
5 5 5 7 78 99 100 100 100 100 100 97 100 100 100 100 100 100 100 100 100 100 100 100 100 100 100 100 100 100 100 99 88 100 100 100 100 78 5 4 96 100 100
5 14 89 100 100 100 100 100 100 100 100 100 100 100 96 96 100 100 100 100 100 100 100 98 100 100 100 100 100 100 100 100 100 100 100 100 100 100 100 79 27 95 100
57 100 100 100 100 100 100 100 100 100 100 100 100 100 100 100 100 93 93 100 100 100 100 100 100 100 100 100 100 100 100 100 100 100 100 100 100 100 100 100 80 76 99
100 100 100 100 100 100 100 100 100 100 100 100 100 100 100 100 100 100 100 100 100 85 98 100 100 100 100 100 100 100 100 100 100 100 100 100 100 100 100 98 66 100 100
100 100 100 100 100 100 100 100 100 100 100 100 100 100 100 100 100 100 100 100 99 100 93 100 100 100 100 100 100 100 100 100 100 100 100 100 100 100 100 100 47 100 97
20 55 83 83 100 100 100 100 100 100 100 100 100 100 100 100 100 100 100 100 99 87 100 100 94 100 100 100 100 100 100 100 100 100 100 100 100 100 100 100 100 100 100
17 24 46 89 91 100 100 100 100 100 100 100 100 100 100 100 98 93 90 100 100 95 96 100 100 96 98 100 100 100 93 100 100 100 100 100 98 100 100 100 100 100 100
42 29 64 95 63 100 100 100 100 100 100 100 100 100 100 100 100 100 100 100 100 84 71 100 99 100 98 96 100 99 88 100 100 100 96 100 100 100 97 100 100 100 100
5 58 68 60 48 38 100 100 100 100 100 100 100 100 100 100 100 100 100 96 100 100 100 100 81 96 100 100 96 100 99 100 100 100 100 100 100 100 100 100 100 100 100
5 26 45 60 32 35 66 100 100 100 100 100 100 100 100 100 100 100 100 100 100 100 100 100 100 83 96 100 98 100 100 100 100 100 100 100 100 100 100 100 100 100 100

GFSGL_prec_cloud_276.txt.gz
Cloud_Cover
5 94 80 100 98 85 8 0 0 0 0 0 0 0 0 0 0 0 0 0 0 0 0 0 0 0 0 5 6 0 0 14 39 36 100 100 100 100 100 100 100 100 100
98 100 100 100 87 56 5 3 1 0 0 0 0 0 0 0 0 0 0 0 0 0 0 0 0 0 0 0 11 4 0 0 1 1 95 100 100 100 100 100 100 100 100
100 100 100 96 86 93 75 4 0 0 0 0 0 0 0 0 0 0 0 0 0 0 0 0 0 0 0 0 3 1 6 0 0 2 13 59 99 100 100 100 100 100 100
42 100 100 100 100 100 13 0 0 0 0 0 0 0 0 0 0 0 0 0 0 0 0 0 0 0 0 0 0 0 0 7 0 0 3 32 100 100 100 100 100 100 100
99 100 100 100 76 88 75 0 0 0 0 0 0 2 4 0 0 0 0 0 0 0 0 0 0 0 0 0 0 0 0 2 1 0 5 5 76 100 100 100 100 100 100
5 5 51 97 100 99 24 0 0 0 0 0 0 3 0 0 0 0 0 0 0 0 0 0 0 0 0 0 0 0 0 19 3 0 4 4 6 95 100 100 100 100 100
60 97 37 11 4 15 11 2 0 0 0 0 0 0 0 0 0 0 0 1 0 0 0 0 0 0 0 0 0 0 0 6 87 80 100 85 48 95 94 100 100 100 100
100 100 100 98 35 69 98 6 0 0 0 0 0 0 0 0 0 1 5 4 1 66 71 16 5 7 33 75 89 88 78 24 38 100 100 100 24 62 80 100 100 100 100
100 100 100 100 97 100 99 0 0 0 0 0 0 0 0 0 4 91 96 87 96 100 100 100 53 92 99 100 100 93 100 100 96 54 28 74 62 85 46 84 100 100 100
100 100 100 100 100 98 7 0 0 0 0 0 0 0 4 5 100 96 100 100 100 100 100 100 100 20 5 98 100 100 98 94 31 0 0 0 2 82 85 99 100 100 100
100 100 100 100 100 93 87 57 2 0 4 2 8 21 27 80 100 100 100 100 100 100 100 100 100 100 72 16 76 100 98 20 5 5 32 34 0 0 0 54 100 100 100
100 100 100 100 78 10 10 46 74 6 4 28 100 100 97 100 100 100 100 100 100 100 100 100 100 100 100 100 65 20 9 5 2 2 77 97 8 0 0 81 100 100 100
100 50 97 83 28 0 4 99 13 8 20 99 100 100 100 98 100 100 100 100 100 100 100 100 100 100 100 100 72 5 5 5 5 5 84 40 5 0 0 36 100 100 100
98 68 91 100 81 100 100 11 69 100 100 100 100 100 100 100 100 100 100 100 100 100 100 100 100 24 75 100 99 100 100 98 13 13 59 26 7 2 0 4 100 100 100
70 100 100 100 100 78 89 38 39 55 100 100 100 100 100 100 98 100 100 100 100 100 100 100 100 100 100 100 100 100 100 100 69 15 100 100 90 74 3 0 100 100 100
100 100 33 31 95 90 81 37 35 100 100 100 100 100 100 100 100 100 100 100 100 100 100 100 100 100 100 100 100 100 100 100 100 32 41 100 100 100 92 7 100 100 100
29 12 100 100 99 94 100 100 100 57 74 91 100 100 100 100 100 100 100 100 100 100 100 100 100 100 100 100 100 100 100 100 100 99 54 100 100 100 100 71 35 100 100
100 100 97 100 100 100 100 100 100 100 100 100 98 100 100 100 100 100 100 100 100 100 100 100 100 100 100 100 100 100 100 100 100 100 79 100 100 100 100 100 100 50 100
100 100 100 100 100 100 100 100 100 100 100 100 100 100 100 100 100 100 100 100 100 100 100 100 100 100 100 100 100 100 100 100 100 100 100 100 100 100 100 100 100 71 52
47 34 20 15 85 100 100 100 100 100 100 100 100 100 100 100 100 100 100 100 100 100 100 100 100 100 100 100 100 100 100 100 100 100 100 100 100 100 100 100 100 100 91
6 14 40 32 5 99 100 100 100 100 100 100 100 100 100 100 100 100 100 100 100 100 100 100 100 100 100 100 100 100 100 100 100 100 100 100 100 100 100 100 100 100 70
5 14 5 5 24 24 100 100 100 100 100 100 100 100 100 100 100 100 97 100 96 100 100 100 100 100 100 100 100 100 100 100 100 100 100 100 100 100 100 100 100 100 38
1 3 2 5 7 6 64 100 100 100 100 100 100 100 100 100 100 100 96 87 100 100 88 88 97 100 100 100 100 100 100 98 100 100 100 100 100 100 100 100 100 100 93
4 2 5 6 5 6 34 96 100 100 100 100 100 100 100 100 100 100 100 98 98 100 100 100 99 94 70 100 100 100 100 94 99 100 100 100 100 100 100 100 100 100 99
5 2 5 10 28 31 49 36 100 100 100 100 100 100 100 100 100 100 100 100 85 99 100 100 100 100 97 90 100 100 100 100 98 97 100 82 97 100 99 100 99 100 100
5 5 8 23 5 22 34 30 64 100 100 100 100 100 100 100 100 100 100 100 100 94 100 100 100 100 100 88 95 100 100 100 97 100 100 90 100 100 95 100 100 100 100

GFSGL_prec_cloud_279.txt.gz
Cloud_Cover
91 46 29 44 58 22 11 27 49 27 24 0 0 5 2 0 0 0 0 0 0 0 0 0 0 0 0 0 2 15 5 13 42 0 0 2 20 78 99 100 100 100 100
100 98 91 66 5 6 78 36 5 5 18 83 99 94 2 0 0 0 0 0 0 0 0 0 0 0 0 0 0 4 7 2 31 20 0 0 0 48 100 100 100 100 100
95 60 95 56 45 5 3 0 5 43 32 55 92 10 4 2 0 0 0 0 0 2 0 0 0 0 0 0 0 13 10 3 2 22 6 0 0 36 78 100 100 100 100
100 61 50 48 100 99 16 23 5 75 10 98 19 2 0 0 0 0 0 0 0 2 0 0 0 0 0 0 1 6 0 9 4 16 3 0 0 10 94 100 100 100 100
100 93 74 20 99 5 5 1 0 0 0 2 0 0 0 0 0 0 0 0 0 0 0 0 0 0 0 0 0 4 3 9 6 26 13 0 0 2 38 47 80 100 100
100 100 100 100 58 63 75 6 20 28 2 5 0 0 0 0 0 0 0 0 0 0 0 0 0 0 0 0 0 0 0 1 0 20 14 28 96 79 8 38 70 100 100
100 100 100 100 100 100 100 99 100 99 9 12 31 45 100 1 23 2 0 0 0 0 2 4 2 2 3 0 0 0 76 99 86 33 14 47 90 51 21 21 22 77 100
100 100 100 100 100 100 100 100 99 92 100 100 100 100 56 4 1 0 2 1 5 4 26 100 99 99 5 6 6 12 5 81 100 100 100 58 68 100 25 31 33 45 99
100 100 100 99 100 100 100 100 71 98 100 99 74 91 7 5 56 3 13 36 6 50 100 100 100 100 90 98 46 100 72 100 100 100 100 100 98 18 18 6 7 38 24
100 100 100 100 100 100 100 100 100 100 100 54 86 68 100 85 57 5 30 66 100 100 100 100 100 100 100 100 37 99 100 75 46 5 7 20 2 0 0 5 13 20 30
100 100 100 100 100 100 100 100 100 100 100 100 100 100 10 5 5 52 98 100 100 100 100 100 100 100 100 100 100 99 73 78 12 5 4 0 0 0 0 0 1 10 24
100 100 100 100 100 100 100 100 100 100 100 94 44 12 5 49 69 100 100 100 100 100 100 100 100 100 100 100 100 100 100 72 5 8 22 5 0 0 0 0 0 0 7
100 100 100 100 100 100 100 100 100 80 34 6 5 27 100 93 78 100 100 100 98 84 100 100 100 100 100 100 100 100 100 81 11 54 38 19 5 3 0 5 0 0 0
100 100 100 100 100 100 100 100 41 99 62 5 6 49 60 27 42 100 100 100 100 100 100 100 100 100 100 100 100 100 100 100 100 100 77 5 20 7 3 5 37 1 4
100 100 100 100 100 66 67 17 24 37 51 98 91 100 100 99 88 100 100 100 100 100 100 100 100 100 100 100 100 100 100 100 100 100 100 62 100 100 95 10 5 3 23
100 100 100 91 100 100 100 100 94 92 74 90 100 90 87 98 100 100 100 100 100 100 100 100 100 100 100 100 100 100 100 100 100 100 100 74 100 100 100 94 87 4 14
100 100 86 100 100 100 100 100 100 100 100 100 100 100 100 97 12 44 100 100 100 100 100 100 100 100 100 100 100 100 100 100 100 100 100 100 100 100 100 100 97 5 0
100 94 100 100 100 100 90 100 100 100 100 100 100 100 100 98 95 100 90 100 100 100 100 100 100 100 100 100 100 100 100 100 100 100 100 100 98 100 100 100 100 48 48
100 100 100 100 97 80 93 100 100 100 100 100 100 100 100 100 100 100 100 100 100 100 100 100 100 100 100 100 100 100 100 100 100 100 100 100 100 100 100 100 100 100 75
57 27 82 99 58 22 100 100 100 100 100 100 100 100 100 100 100 100 100 94 100 100 100 100 100 100 100 100 100 100 100 100 100 100 100 100 100 100 100 100 100 100 98
14 8 24 8 11 23 68 100 100 100 100 100 100 100 100 100 100 100 100 100 64 97 94 100 100 100 99 100 100 100 100 100 100 100 100 100 100 100 100 100 100 100 100
1 1 3 5 21 22 32 29 97 100 100 100 100 100 100 100 100 100 96 100 100 71 68 98 100 100 100 100 100 100 100 100 100 100 100 100 100 100 100 100 100 100 100
5 5 5 6 22 15 28 34 48 96 100 100 100 100 100 100 100 100 100 100 96 95 76 94 100 95 93 83 100 100 100 100 100 100 100 100 100 100 100 100 100 100 100
5 5 13 5 5 14 44 40 27 61 100 100 100 100 100 100 100 100 99 100 100 100 81 83 100 100 100 100 71 100 100 100 100 100 100 100 100 100 100 100 100 100 100
0 6 19 8 37 43 39 5 6 35 99 100 100 100 100 98 100 100 100 100 100 100 100 84 96 100 100 100 100 90 100 100 100 100 100 100 100 100 100 100 100 100 100
2 5 24 10 11 23 20 8 5 18 89 100 100 100 100 94 100 100 82 89 99 100 100 94 100 100 100 100 100 100 100 100 100 100 100 96 100 98 100 100 100 100 100

GFSGL_prec_cloud_285.txt.gz
Cloud_Cover
99 40 60 99 91 44 98 100 46 48 94 5 12 0 0 0 0 0 1 3 3 2 3 0 0 0 0 0 0 0 0 0 0 0 0 0 0 0 0 0 44 100 87
100 100 100 100 100 96 99 55 100 100 58 100 100 83 82 4 3 4 5 3 5 2 0 0 0 0 0 0 0 0 0 0 0 0 2 3 0 0 0 0 0 94 96
100 100 99 93 100 89 95 100 100 100 100 100 100 86 19 10 1 3 5 50 3 0 0 0 0 0 0 0 0 0 2 2 1 1 2 0 0 0 1 4 0 2 64
72 50 89 100 100 99 99 100 100 100 100 100 100 54 5 76 100 73 5 1 0 0 0 1 1 4 4 2 5 11 6 45 40 6 20 15 5 1 6 17 0 0 67
95 91 86 100 100 100 100 100 100 100 100 100 100 100 100 100 100 32 3 3 0 5 0 0 0 14 77 78 71 81 67 29 100 100 100 88 88 91 36 22 51 9 100
100 100 74 93 100 100 100 100 100 100 100 100 100 100 100 100 93 5 46 98 5 5 5 6 5 5 7 4 60 99 71 100 100 100 100 100 100 99 84 72 77 60 36
100 100 98 80 99 100 100 100 100 100 100 100 100 100 100 96 98 27 30 73 100 48 5 26 21 29 88 85 91 87 100 56 100 98 38 85 88 89 48 64 60 43 84
100 100 100 100 100 100 98 100 100 100 100 100 100 100 100 100 100 86 100 100 100 94 41 90 74 100 100 89 77 97 74 91 100 7 5 2 20 68 99 68 15 7 2
100 100 100 100 100 100 100 100 100 100 100 100 100 100 100 100 99 46 100 100 100 100 100 100 100 100 100 44 9 42 87 96 100 8 7 4 5 6 88 8 20 28 1
100 100 100 100 100 100 100 100 100 100 100 100 100 100 100 100 100 100 100 98 100 100 84 98 98 100 100 85 35 98 100 100 100 94 62 59 44 20 5 5 10 30 19
100 100 100 100 100 100 100 100 100 100 100 100 100 100 100 100 100 100 100 100 100 100 100 78 53 99 99 64 17 82 82 100 100 99 100 100 73 47 5 13 53 14 3
100 100 100 100 100 100 100 100 100 100 100 100 100 100 100 100 100 100 100 92 100 100 99 100 100 98 97 42 17 9 93 100 100 100 100 100 100 80 46 45 82 58 28
100 100 100 100 100 100 100 100 100 100 100 100 100 100 65 97 100 100 100 100 100 100 100 91 14 6 60 17 22 72 100 100 100 100 100 100 100 100 98 49 58 76 45
100 100 100 100 100 100 100 100 100 100 100 94 100 100 100 100 100 100 100 100 100 66 100 100 83 69 29 24 100 100 100 100 100 100 100 100 100 100 100 100 100 100 66
100 100 100 100 100 100 100 100 99 100 100 100 100 100 100 100 100 100 100 100 100 100 100 100 90 77 85 89 100 100 100 100 100 100 100 100 100 100 100 100 100 100 100
100 100 100 95 100 82 100 100 100 100 100 100 100 100 100 95 100 97 99 90 100 100 100 100 100 100 100 100 100 100 100 100 100 100 100 100 100 100 100 100 100 100 100
100 100 100 100 100 100 100 100 99 100 88 91 100 100 100 100 100 100 100 94 58 39 100 100 100 100 100 100 100 100 100 100 100 100 100 100 100 100 100 98 100 100 100
100 100 100 100 87 29 83 100 100 100 100 100 100 100 100 100 100 93 67 18 86 93 100 100 100 100 100 100 100 100 100 100 100 100 100 100 100 100 100 100 100 100 100
100 73 97 88 54 76 31 53 48 100 100 100 100 98 100 96 56 53 100 95 100 100 100 100 100 100 100 100 100 99 100 99 100 100 100 100 100 100 100 100 100 100 100
100 100 100 100 48 30 32 81 97 61 100 100 100 100 100 100 100 100 100 100 100 100 100 100 100 100 100 100 100 100 100 99 100 100 100 100 100 100 100 100 100 100 100
100 100 97 6 18 100 100 100 10 5 90 100 100 100 100 100 100 100 100 100 100 100 100 100 100 100 100 100 100 100 100 100 100 100 100 100 100 100 100 100 100 100 100
100 89 29 80 31 9 53 29 5 5 46 100 100 100 100 100 100 100 100 100 100 100 100 100 100 100 100 100 100 100 100 100 100 100 100 100 100 100 100 100 100 100 100
69 7 12 8 5 2 3 5 5 5 5 80 100 100 100 100 100 100 100 100 100 100 100 100 100 100 100 100 100 100 100 100 98 100 100 100 100 100 100 100 100 100 100
5 5 5 5 2 5 5 5 5 5 5 35 100 100 100 100 100 100 100 100 100 100 100 100 100 100 100 100 100 100 100 100 99 100 100 100 100 100 100 100 100 100 100
5 5 5 5 5 5 5 5 5 5 5 32 100 100 100 100 100 100 100 100 100 100 100 100 100 100 100 100 100 100 100 100 100 100 100 100 100 100 100 100 100 100 100
3 2 5 5 5 5 5 5 5 5 5 60 100 100 100 100 100 100 100 100 100 100 100 100 100 100 100 100 100 100 100 100 100 100 100 100 100 100 100 100 100 100 100

GFSGL_prec_cloud_291.txt.gz
Cloud_Cover
100 100 100 100 100 100 96 100 100 100 100 100 100 76 46 100 100 100 100 100 100 100 100 19 6 5 33 100 26 82 86 100 99 5 3 0 0 2 1 4 1 0 0
100 100 100 100 100 100 100 100 100 100 100 100 100 100 100 100 100 100 100 100 100 100 100 100 100 100 100 70 56 100 100 98 0 0 0 0 0 0 2 3 30 94 97
100 100 100 100 100 100 96 100 100 100 100 100 100 100 100 100 67 98 99 100 100 100 94 100 100 77 93 100 100 92 11 1 0 0 0 3 7 7 100 100 100 100 100
100 100 100 100 100 100 100 100 100 86 100 100 100 100 100 100 100 100 100 100 100 100 100 100 100 100 100 99 13 4 5 1 1 2 3 7 28 100 100 77 100 99 28
100 100 100 100 100 100 100 100 33 52 100 100 100 100 91 50 97 100 100 100 100 100 100 100 100 99 98 20 8 5 4 5 1 7 98 100 100 100 100 100 100 17 97
100 100 100 100 100 100 100 100 81 100 100 95 100 76 81 38 5 34 99 100 100 100 100 55 5 5 11 47 40 0 2 2 9 6 100 100 12 58 100 99 73 1 2
100 100 100 100 100 99 47 28 86 92 99 100 100 100 95 100 100 100 60 19 23 5 5 25 43 67 4 14 78 98 54 95 85 97 100 100 47 77 41 92 3 6 2
100 100 100 100 100 100 79 71 94 100 100 100 97 98 100 100 100 100 100 96 99 100 97 98 59 19 11 14 36 8 5 42 72 100 69 64 43 55 42 53 7 4 4
100 100 100 100 100 100 100 100 100 100 100 100 100 100 100 100 100 100 100 100 100 90 100 92 50 85 96 99 18 55 55 44 54 98 100 84 62 16 5 5 10 11 5
100 100 100 97 100 100 100 100 100 100 100 100 100 100 100 100 100 100 100 100 100 100 100 100 85 80 95 7 5 21 46 23 84 100 81 100 97 98 17 5 4 89 8
100 100 100 100 100 100 100 100 100 100 100 100 100 100 100 100 100 100 100 100 100 100 100 100 67 79 73 52 5 5 31 74 92 100 98 87 75 99 45 48 100 100 100
100 100 100 100 100 100 100 100 100 100 100 100 100 100 100 100 100 74 100 100 100 100 100 100 75 6 1 5 7 5 52 73 65 99 100 91 98 100 100 62 45 39 47
100 100 100 100 100 100 100 100 100 100 100 100 100 100 100 100 100 100 100 100 100 47 58 55 14 5 5 7 22 82 74 56 99 100 100 100 100 100 100 100 98 98 63
100 100 100 100 100 100 100 100 100 100 100 100 100 100 100 100 98 100 94 100 96 85 68 56 18 5 10 61 81 97 100 100 100 100 100 100 100 100 100 100 100 100 99
100 100 100 100 100 100 100 100 100 98 100 100 100 100 100 100 100 100 100 99 100 78 24 47 34 73 100 89 94 100 100 100 100 100 100 99 100 100 100 100 100 99 100
100 100 100 100 100 100 100 100 100 100 100 100 100 100 99 80 86 56 8 46 65 92 28 43 49 97 100 100 100 100 100 100 100 100 100 100 65 100 100 100 100 100 100
100 100 100 100 100 100 100 100 100 100 100 100 100 100 85 50 100 100 85 77 85 69 64 79 100 100 100 100 100 100 100 100 100 100 100 88 100 100 100 98 100 100 100
99 88 100 100 100 100 100 100 100 100 100 100 100 100 86 90 64 40 61 70 75 100 100 100 100 100 100 100 100 100 100 100 100 100 100 100 100 100 100 100 100 99 100
100 100 100 100 100 100 100 100 100 100 100 89 100 88 98 99 63 98 100 100 100 100 100 100 100 100 100 100 100 100 100 100 94 100 99 70 100 100 100 100 96 100 100
100 100 100 100 100 100 100 100 100 68 44 5 32 60 99 56 88 99 100 100 100 100 100 100 100 100 100 100 100 100 100 100 100 100 52 100 100 100 100 100 100 100 100
100 74 79 95 88 98 41 5 5 5 5 5 13 41 5 87 100 100 100 100 100 100 100 100 100 100 100 100 100 100 100 100 100 100 99 100 69 100 100 100 100 100 100
5 7 53 44 22 5 5 5 5 5 5 5 29 94 99 100 100 100 100 100 100 100 100 100 100 100 100 100 100 100 100 100 100 100 82 100 100 100 100 100 100 100 100
5 5 5 5 5 5 5 5 5 5 4 13 64 98 100 100 100 100 100 100 100 100 100 100 100 100 100 100 100 100 100 100 100 100 95 100 100 100 100 100 100 100 100
3 5 5 5 5 0 0 0 1 8 27 64 68 100 100 100 100 100 100 100 100 100 100 100 100 100 100 100 100 100 100 100 100 100 100 85 100 100 100 100 100 100 100
49 6 5 5 4 8 7 64 70 66 68 85 81 100 100 100 100 100 100 100 100 100 100 100 100 100 100 100 100 100 100 100 100 100 96 93 100 100 100 100 100 98 100
77 68 48 58 74 32 73 93 80 77 92 86 88 88 100 100 100 100 100 100 100 100 100 100 100 100 100 100 100 100 100 100 100 100 87 100 100 100 100 100 100 100 100